Terminal Aerodrome Forecast
Issued by NWS Lake Charles, LA

Home | Current Version | Previous Version | Text Only | Print | Product List | Glossary On
Versions: 1 2 3 4 5 6 7 8 9 10 11 12 13 14 15
000
FTUS44 KLCH 011100
TAFAEX
TAF
KAEX 011131Z 0112/0212 VRB03KT 4SM BR BKN006
     FM011400 14005KT P6SM SCT010 BKN030
     FM011600 15006KT P6SM VCSH SCT025 BKN050
     FM012300 15004KT P6SM FEW025 SCT100=

USA.gov is the U.S. government's official web portal to all federal, state and local government web resources and services.